Location: *
(44.3925°N, 5.4708°E)
Time: 03:21:47
(UTC+00:00)

GP-B - Pass Details

Date: 18 September 2019
Orbit: 631 x 635 km, 89.8° (Epoch: 16 October)

Event Time Altitude Azimuth Distance (km) Brightness Sun altitude
Rises 19:06:46 0° 356° (N) 2,939 6.8 -15.4°
Reaches altitude 10° 19:09:04 10° 350° (N) 2,025 6.1 -15.7°
Maximum altitude 19:13:19 47° 277° (W) 840 4.2 -16.5°
Drops below altitude 10° 19:17:33 10° 204° (SSW) 2,008 5.7 -17.2°
Sets 19:19:49 0° 198° (SSW) 2,911 6.5 -17.6°
